Location: Isola Pescaroli
(45.0500°N, 10.1667°E)
Time: 17:50:47
(UTC+00:00)

ASTEX 1 - Pass Details

Date: 03 March 2021
Orbit: 720 x 743 km, 92.7° (Epoch: 18 April)

Event Time Altitude Azimuth Distance (km) Brightness Sun altitude
Rises 19:20:44 0° 5° (N) 3,149 6.8 -23.8°
Reaches altitude 10° 19:23:02 10° 4° (N) 2,222 6.0 -24.2°
Maximum altitude 19:27:57 85° 277° (W) 731 3.3 -25.0°
Enters shadow 19:30:13 33° 191° (SSW) 1,211 4.4 -25.4°
